Regional Weather Roundup
Issued by NWS

Home | Current Version | Previous Version | Graphics & Text | Print | Product List | Glossary On
Versions: 1 2 3 4 5 6 7 8 9 10 11 12 13 14 15 16 17 18 19 20 21 22 23 24 25 26 27 28 29 30 31 32 33 34 35 36 37 38 39 40 41 42 43 44 45 46 47 48 49 50
210
ASUS44 KLIX 221105
RWRLA
LOUISIANA WEATHER ROUNDUP
NATIONAL WEATHER SERVICE NEW ORLEANS LA
600 AM CDT TUE JUL 22 2014

NOTE: "FAIR" INDICATES FEW OR NO CLOUDS BELOW 12,000 FEET WITH NO
      SIGNIFICANT WEATHER AND/OR OBSTRUCTIONS TO VISIBILITY.
      SKY/WX - SKY CONDITION AND SIGNIFICANT WEATHER.
      TMP - AIR TEMPERATURE.    DP   - DEWPOINT TEMPERATURE.
      RH  - RELATIVE HUMIDITY.  PRES - PRESSURE.
      HX  - HEAT INDEX.         WCI  - WIND CHILL INDEX.

*  THESE STATIONS ARE NOT NWS OR FAA STATIONS AND ARE NOT UNDER
   NWS QUALITY CONTROL.

LAZ040-048-061>063-065-066-069-221200-
SOUTHEAST LOUISIANA

CITY           SKY/WX    TMP DP  RH WIND       PRES   REMARKS
N.O. AUDUBON   NOT AVBL
N.O. INTL ARPT PTCLDY    77  73  87 CALM      30.01R
N.O. LAKEFRONT PTCLDY    78  73  84 S5        30.02R
N.O. DOWNTOWN* FAIR      81  72  74 CALM      30.02R
SLIDELL        CLEAR     72  70  93 CALM      30.01R
BATON ROUGE    CLEAR     71  69  93 CALM      30.02R
BOOTHVILLE     CLEAR     78  76  93 CALM      30.01R FOG
BELLE CHASSE   MOCLDY    75  72  90 CALM      30.01R FOG
BOGALUSA*      NOT AVBL
GALLIANO*      NOT AVBL
NEW ROADS*     NOT AVBL
GONZALES*      NOT AVBL
HAMMOND*       CLEAR     72  68  88 CALM      30.04R
HOUMA*         MOCLDY    75  72  88 CALM      30.01S FOG
PORT FOURCHON* MOSUNNY   81  77  89 CALM      30.03R

$$

LAZ041-044-053-054-221200-
SOUTHWEST LOUISIANA

CITY           SKY/WX    TMP DP  RH WIND       PRES   REMARKS
LAKE CHARLES   CLEAR     76  75  97 N6        30.00F FOG
LAFAYETTE      CLEAR     75  72  90 CALM      30.02R
PATTERSON        N/A     75  75 100 CALM      30.04
SALT POINT       N/A     80  77  90 CALM      30.00S
NEW IBERIA     CLEAR     75  72  90 N5        30.01R
CHENAULT AIRPK NOT AVBL

$$

LAZ027-028-221200-
CENTRAL LOUISIANA

CITY           SKY/WX    TMP DP  RH WIND       PRES   REMARKS
FORT POLK      PTCLDY    74  70  87 CALM      30.04R
ALEXANDRIA INT CLEAR     70  68  93 CALM      30.03R FOG
ALEXANDRIA     CLEAR     68  65  90 CALM      30.04R FOG

$$

LAZ001-002-221200-
NORTHWEST LOUISIANA

CITY           SKY/WX    TMP DP  RH WIND       PRES   REMARKS
SHREVEPORT     PTCLDY    69  67  93 CALM      30.05R
BARKSDALE AFB  CLEAR     68  68 100 N3        30.06R
DTN SHREVEPORT CLEAR     70  67  90 CALM      30.06R

$$

LAZ014-016-221200-
NORTHEAST LOUISIANA

CITY           SKY/WX    TMP DP  RH WIND       PRES   REMARKS
MONROE         CLEAR     69  68  96 NE5       30.06R FOG
TALLULAH       CLEAR     70  68  93 N3        30.04R

$$




USA.gov is the U.S. government's official web portal to all federal, state and local government web resources and services.